Weather in Drabiv

Ukraine / Cherkassi District     49˚57′20″N   32˚07′55″E
temp.,
°C
wind,
m/s
gust,
m/s
humid.,
%
clouds,
%
prec.,
mm/h
press.,
hPa
HPBL,
m
27 november, fri
fri2723:00+3˚sw4109341 0.0 1022267
02:00+2˚sw5119322 0.0 1022320
05:00+1˚sw511880 0.0 1020309
08:00sw5118313 0.0 1019301
11:00+3˚sw586693 0.0 1019401
14:00+5˚sw576395 0.0 1018443
17:00+4˚sw4970100 0.0 1018391
20:00+4˚w3877100 0.0 1018440
28 november, sat
sat2823:00+3˚w3681100 0.0 1019368
02:00+3˚w2496100 0.4 1019230
05:00+3˚sw1197100 1.2 101992
08:00+3˚ssw1297100 1.5 1019123
11:00+3˚wsw0097100 0.9 101989
14:00+3˚w0097100 1.9 101987
17:00+3˚s1198100 0.9 101989
20:00+3˚sw0197100 0.9 101952
29 november, sun
sun2923:00+3˚ene0196100 0.1 101925
02:00+3˚n1197100 0.8 1019126
05:00+3˚nnw3497100 1.5 1018198
08:00+2˚nw3496100 3.0 1018176
11:00+2˚nw2396100 1.1 1019186
14:00+2˚wnw1296100 1.8 1019151
17:00+2˚nw1295100 0.2 1020131
20:00+2˚nnw2394100 0.3 1021195
30 november, mon
mon3023:00+2˚n119596 0.1 1021104
02:00nw239482 0.1 102294
05:00−1˚n229435 0.0 102243
08:00n349167 0.0 1024175
11:00+2˚n3583100 0.0 1024290
14:00+1˚n4694100 0.3 1024309
17:00n5897100 1.8 1024321
20:00+1˚n5897100 3.4 1025292
1 december, tue
tue123:00+1˚nnw4798100 0.3 1025238
02:00+1˚n4698100 0.3 1025182
05:00+2˚nne3597100 0.2 1025162
08:00+2˚ene1291100 0.2 102534
11:00+4˚ese3685100 0.0 1025411
14:00+3˚e3680100 0.0 1025421
17:00+2˚e3780100 0.0 1025522
20:00+2˚e3780100 0.0 1025594